Drummond Island, MI

10:19 PM EDT on April 28, 2017 (GMT -0400)
Drummond Island

Weather History for KDRM - March, 2013

Change the Weather History Date:

Friday, March 1, 2013

  Actual Average (KCIU) Record (KCIU)
Temperature  
Mean Temperature 18 °F -  
Max Temperature 27 °F 32 °F 51 °F (1983)
Min Temperature 10 °F 7 °F -31 °F (1980)
Degree Days  
Heating Degree Days 46    
Moisture  
Dew Point 10 °F    
Average Humidity 72    
Maximum Humidity 85    
Minimum Humidity 57    
Precipitation  
Precipitation 0.00 in - - ()
Sea Level Pressure  
Sea Level Pressure 30.15 in    
Wind  
Wind Speed 8 mph (North)    
Max Wind Speed 12 mph    
Max Gust Speed 20 mph    
Visibility 10 miles    
Events      
Averages and records for this station are not official NWS values.
T = Trace of Precipitation, MM = Missing Value Source: NWS Daily Summary

Daily Weather History Graph

Daily Weather History Graph

Search for Another Location

Airport or City:

Trip Planner

Search our weather history database for the weather conditions in past years. The results will help you decide how hot, cold, wet, or windy it might be!

Date:

Astronomy

Mar. 01, 2013 Rise Set
Actual Time 7:13 AM EST 6:21 PM EST
Civil Twilight 6:43 AM EST 6:51 PM EST
Nautical Twilight 6:08 AM EST 7:26 PM EST
Astronomical Twilight 5:34 AM EST 8:01 PM EST
Moon 11:12 PM EST (3/1) 8:43 AM EST (3/1)
Length of Visible Light 12h 08m
Length of Day
11h 08m
Waning Gibbous, 83% of the Moon is Illuminated
Mar 1
Waning Gibbous
Mar 4
Last Quarter
Mar 11
New
Mar 19
First Quarter
Mar 27
Full

Hourly Weather History & Observations

Time (EST) Temp. Windchill Dew Point Humidity Pressure Visibility Wind Dir Wind Speed Gust Speed Precip Events Conditions
12:16 AM 18.0 °F 7.7 °F 11.7 °F 76% 30.06 in 10.0 mi North 8.1 mph - N/A   Overcast
12:36 AM 16.7 °F 4.5 °F 10.9 °F 78% 30.06 in 10.0 mi North 10.4 mph - N/A   Scattered Clouds
12:56 AM 16.0 °F 5.3 °F 10.4 °F 79% 30.07 in 10.0 mi North 8.1 mph - N/A   Clear
1:16 AM 15.3 °F 4.4 °F 9.9 °F 79% 30.08 in 10.0 mi North 8.1 mph - N/A   Clear
1:36 AM 14.9 °F 5.0 °F 9.5 °F 79% 30.08 in 10.0 mi North 6.9 mph - N/A   Clear
1:56 AM 14.5 °F 3.6 °F 9.3 °F 80% 30.08 in 10.0 mi North 8.1 mph - N/A   Clear
2:16 AM 13.3 °F 1.1 °F 8.6 °F 82% 30.08 in 10.0 mi North 9.2 mph - N/A   Clear
2:36 AM 13.3 °F 1.1 °F 8.4 °F 81% 30.09 in 10.0 mi North 9.2 mph - N/A   Clear
2:56 AM 13.1 °F 0.9 °F 8.2 °F 81% 30.09 in 10.0 mi North 9.2 mph - N/A   Scattered Clouds
3:16 AM 13.1 °F 1.8 °F 8.6 °F 82% 30.09 in 10.0 mi North 8.1 mph - N/A   Mostly Cloudy
3:36 AM 12.7 °F 3.6 °F 7.9 °F 81% 30.09 in 10.0 mi North 5.8 mph - N/A   Scattered Clouds
4:56 AM 11.5 °F 5.3 °F 7.5 °F 84% 30.12 in 10.0 mi North 3.5 mph - N/A   Clear
5:17 AM 10.4 °F 0.8 °F 6.8 °F 85% 30.13 in 10.0 mi North 5.8 mph - N/A   Clear
5:36 AM 11.1 °F -2.4 °F 6.8 °F 83% 30.13 in 10.0 mi North 10.4 mph - N/A   Scattered Clouds
5:56 AM 13.1 °F 2.8 °F 7.7 °F 79% 30.13 in 10.0 mi North 6.9 mph - N/A   Overcast
6:16 AM 13.1 °F 2.8 °F 8.2 °F 81% 30.13 in 10.0 mi North 6.9 mph - N/A   Overcast
6:36 AM 13.5 °F 3.3 °F 8.2 °F 80% 30.13 in 10.0 mi North 6.9 mph - N/A   Overcast
7:16 AM 13.8 °F 3.7 °F 8.8 °F 80% 30.14 in 10.0 mi NNW 6.9 mph - N/A   Overcast
7:36 AM 14.0 °F 8.2 °F 9.3 °F 82% 30.15 in 10.0 mi NNW 3.5 mph - N/A   Overcast
7:56 AM 14.5 °F 5.7 °F 9.9 °F 82% 30.15 in 10.0 mi NNW 5.8 mph - N/A   Overcast
8:16 AM 15.3 °F 5.4 °F 10.8 °F 82% 30.16 in 10.0 mi NNW 6.9 mph - N/A   Overcast
8:36 AM 15.4 °F 4.6 °F 10.4 °F 80% 30.16 in 10.0 mi North 8.1 mph - N/A   Overcast
8:57 AM 15.4 °F 3.8 °F 10.4 °F 80% 30.17 in 10.0 mi North 9.2 mph - N/A   Overcast
9:16 AM 15.8 °F 4.2 °F 10.0 °F 78% 30.17 in 10.0 mi North 9.2 mph - N/A   Overcast
9:36 AM 15.8 °F 4.2 °F 10.0 °F 78% 30.17 in 10.0 mi North 9.2 mph 17.3 mph N/A   Overcast
9:57 AM 16.0 °F 5.3 °F 9.9 °F 77% 30.17 in 10.0 mi North 8.1 mph - N/A   Scattered Clouds
10:16 AM 16.2 °F 6.5 °F 10.0 °F 77% 30.17 in 10.0 mi North 6.9 mph - N/A   Scattered Clouds
10:36 AM 16.7 °F 4.5 °F 10.2 °F 76% 30.17 in 10.0 mi North 10.4 mph - N/A   Scattered Clouds
10:56 AM 17.4 °F 6.2 °F 10.4 °F 74% 30.18 in 10.0 mi North 9.2 mph 16.1 mph N/A   Clear
11:16 AM 17.6 °F 5.0 °F 10.2 °F 73% 30.17 in 10.0 mi North 11.5 mph 19.6 mph N/A   Clear
11:36 AM 18.3 °F 7.3 °F 10.6 °F 72% 30.18 in 10.0 mi North 9.2 mph 16.1 mph N/A   Clear
11:56 AM 18.3 °F 8.2 °F 9.5 °F 68% 30.18 in 10.0 mi North 8.1 mph - N/A   Clear
12:16 PM 19.4 °F 8.6 °F 9.9 °F 66% 30.18 in 10.0 mi North 9.2 mph 16.1 mph N/A   Clear
12:36 PM 19.9 °F 9.3 °F 10.0 °F 65% 30.18 in 10.0 mi North 9.2 mph - N/A   Clear
1:16 PM 21.9 °F 11.7 °F 10.4 °F 61% 30.16 in 10.0 mi North 9.2 mph - N/A   Clear
1:37 PM 22.8 °F 13.6 °F 11.1 °F 61% 30.16 in 10.0 mi North 8.1 mph - N/A   Clear
1:56 PM 23.9 °F 14.2 °F 11.1 °F 58% 30.15 in 10.0 mi North 9.2 mph - N/A   Clear
2:16 PM 24.6 °F 15.8 °F 12.2 °F 59% 30.15 in 10.0 mi North 8.1 mph - N/A   Clear
2:37 PM 25.5 °F 16.2 °F 12.4 °F 58% 30.14 in 10.0 mi North 9.2 mph - N/A   Clear
2:56 PM 25.5 °F 16.2 °F 12.2 °F 57% 30.14 in 10.0 mi North 9.2 mph - N/A   Clear
3:16 PM 25.7 °F 18.0 °F 12.7 °F 58% 30.14 in 10.0 mi North 6.9 mph - N/A   Clear
3:36 PM 26.4 °F 18.0 °F 13.3 °F 58% 30.13 in 10.0 mi North 8.1 mph - N/A   Clear
4:16 PM 27.0 °F 20.5 °F 14.0 °F 58% 30.13 in 10.0 mi North 5.8 mph - N/A   Clear
4:36 PM 27.3 °F 19.9 °F 13.8 °F 57% 30.13 in 10.0 mi NNW 6.9 mph - N/A   Clear
5:15 PM 26.4 °F 18.0 °F 13.1 °F 57% 30.13 in 10.0 mi North 8.1 mph - N/A   Clear
5:36 PM 26.1 °F 17.6 °F 12.7 °F 57% 30.14 in 10.0 mi North 8.1 mph - N/A   Clear
5:56 PM 24.4 °F 16.5 °F 13.1 °F 62% 30.14 in 10.0 mi North 6.9 mph - N/A   Clear
6:16 PM 23.9 °F 16.8 °F 12.7 °F 62% 30.15 in 10.0 mi North 5.8 mph - N/A   Clear
6:36 PM 22.1 °F 14.7 °F 12.2 °F 66% 30.15 in 10.0 mi North 5.8 mph - N/A   Clear
6:56 PM 21.7 °F 13.2 °F 11.7 °F 65% 30.16 in 10.0 mi North 6.9 mph - N/A   Clear
7:16 PM 21.2 °F 12.6 °F 11.3 °F 66% 30.16 in 10.0 mi North 6.9 mph - N/A   Clear
7:36 PM 20.3 °F 13.8 °F 11.1 °F 68% 30.17 in 10.0 mi North 4.6 mph - N/A   Clear
7:56 PM 21.2 °F 11.7 °F 11.1 °F 65% 30.17 in 10.0 mi North 8.1 mph - N/A   Clear
8:16 PM 21.2 °F 13.6 °F 10.9 °F 65% 30.17 in 10.0 mi NNE 5.8 mph - N/A   Clear
8:37 PM 19.8 °F 13.2 °F 10.6 °F 68% 30.18 in 10.0 mi NNE 4.6 mph - N/A   Clear
8:56 PM 18.9 °F 12.1 °F 10.2 °F 69% 30.18 in 10.0 mi NNE 4.6 mph - N/A   Clear
9:16 PM 18.5 °F 10.4 °F 9.9 °F 69% 30.19 in 10.0 mi NNE 5.8 mph - N/A   Clear
9:36 PM 18.0 °F 6.9 °F 9.3 °F 69% 30.19 in 10.0 mi NNE 9.2 mph - N/A   Clear
9:56 PM 17.4 °F 9.1 °F 9.0 °F 69% 30.19 in 10.0 mi North 5.8 mph - N/A   Scattered Clouds
10:17 PM 17.4 °F 8.0 °F 9.3 °F 71% 30.18 in 10.0 mi North 6.9 mph - N/A   Overcast
10:36 PM 16.7 °F 6.2 °F 8.6 °F 70% 30.18 in 10.0 mi North 8.1 mph - N/A   Mostly Cloudy
10:56 PM 17.1 °F 7.6 °F 9.5 °F 72% 30.18 in 10.0 mi North 6.9 mph - N/A   Overcast
11:16 PM 15.8 °F 7.2 °F 9.0 °F 74% 30.18 in 10.0 mi North 5.8 mph - N/A   Scattered Clouds
11:36 PM 14.0 °F 5.1 °F 7.9 °F 77% 30.18 in 10.0 mi North 5.8 mph - N/A   Scattered Clouds
11:56 PM 13.5 °F 5.8 °F 7.7 °F 78% 30.18 in 10.0 mi North 4.6 mph - N/A   Overcast